This demonstration page uses our WeatherBlox Daily Observations layout. Learn more.

Left ArrowRight Arrow

Hourly Observations for July 29, 2015

Temp ( °F °C ) Dew Point ( °F °C ) Humidity (%) Winds ( mph kmh ) Pressure ( in mb ) Visibility ( mi km ) Precip ( " mm )
12:51 am 00:51 Clear 80 26.7 59 15 49 49 W 13 20 29.83 1010 10 16.0934 N/A
1:51 am 01:51 Clear 79 26.1 59 15 50 50 NW 8 13 29.82 1010 10 16.0934 N/A
2:51 am 02:51 Mostly Cloudy 79 26.1 59 15 50 50 S 3 6 29.25 990 10 16.0934 N/A
3:51 am 03:51 Partly Cloudy 79 26.1 59 15 50 50 SW 5 7 29.85 1011 10 16.0934 N/A
4:51 am 04:51 Clear 79 26.1 57 13.9 47 47 N N/A 29.88 1012 10 16.0934 N/A
5:51 am 05:51 Mostly Cloudy 79 26.1 59 15 50 50 SE 3 6 29.9 1013 10 16.0934 N/A
6:51 am 06:51 Partly Cloudy 81 27.2 61 16.1 51 51 S 6 9 29.91 1013 10 16.0934 N/A
7:51 am 07:51 Sunny 83 28.3 60 15.6 46 46 SSE 5 7 29.91 1013 10 16.0934 N/A
8:51 am 08:51 Sunny 85 29.4 59 15 42 42 N N/A 29.91 1013 10 16.0934 N/A
9:51 am 09:51 Sunny 88 31.1 58 14.4 36 36 SSW 7 11 29.91 1013 10 16.0934 N/A
10:51 am 10:51 Sunny 91 32.8 58 14.4 33 33 SSW 10 17 29.9 1012 10 16.0934 N/A
11:51 am 11:51 Sunny 91 32.8 57 13.9 32 32 VRB 5 7 29.89 1012 10 16.0934 N/A
12:51 pm 12:51 Sunny 94 34.4 57 13.9 29 29 VRB 6 9 29.86 1011 10 16.0934 N/A
1:33 pm 13:33 Sunny with Nearby Thunderstorms 94 34.4 57 13.9 29 29 S 12 19 29.74 1007 10 16.0934 N/A
1:51 pm 13:51 Partly Cloudy with Nearby Thunderstorms 97 36.1 56 13.3 25 25 S 14 22 29.84 1010 10 16.0934 N/A
2:02 pm 14:02 Partly Cloudy with Thunderstorms 82 27.8 38 3.3 21 21 S 10 17 30.06 1018 10 16.0934 N/A
2:26 pm 14:26 Mostly Cloudy with Nearby Thunderstorms 86 30 62 16.7 45 45 S 14 22 29.8 1009 10 16.0934 N/A
2:51 pm 14:51 Mostly Cloudy with Nearby Thunderstorms 75 23.9 29 -1.7 18 18 SSW 9 15 30.15 1021 10 16.0934 N/A
3:01 pm 15:01 Cloudy 88 31.1 59 15 38 38 SSW 6 9 29.8 1009 10 16.0934 N/A
3:51 pm 15:51 Mostly Cloudy 80 26.7 66 18.9 62 62 NNE 13 20 29.9 1012 10 16.0934 0.04 1.016
4:51 pm 16:51 Cloudy 81 27.2 61 16.1 51 51 NNE 16 26 29.89 1012 10 16.0934 N/A
5:51 pm 17:51 Mostly Sunny 82 27.8 61 16.1 49 49 W 10 17 29.91 1013 10 16.0934 N/A
6:51 pm 18:51 Mostly Sunny 79 26.1 62 16.7 56 56 WNW 10 17 29.93 1013 10 16.0934 N/A
7:51 pm 19:51 Mostly Cloudy 77 25 63 17.2 62 62 NW 8 13 29.96 1015 10 16.0934 N/A
8:51 pm 20:51 Mostly Cloudy 77 25 62 16.7 60 60 NW 12 19 29.98 1015 10 16.0934 N/A
9:51 pm 21:51 Cloudy 74 23.3 65 18.3 74 74 W 10 17 30.01 1016 10 16.0934 N/A
10:51 pm 22:51 Mostly Cloudy 73 22.8 65 18.3 76 76 NW 8 13 30.01 1016 10 16.0934 N/A
11:51 pm 23:51 Cloudy 73 22.8 65 18.3 76 76 N N/A 30 1016 10 16.0934 N/A

Powered by AerisWeather